Location: Sabalos
(43.2860°N, 0.1414°E)
Time: 04:37:30
(UTC+00:00)

Cosmos 1825 - Pass Details

Date: 05 July 2020
Orbit: 502 x 508 km, 82.5° (Epoch: 06 August)

Event Time Altitude Azimuth Distance (km) Brightness Sun altitude
Exits shadow 23:32:48 39° 282° (WNW) 775 3.1 -23.7°
Maximum altitude 23:32:49 39° 283° (WNW) 775 3.1 -23.7°
Drops below altitude 10° 23:36:24 10° 353° (N) 1,735 6.0 -23.7°
Sets 23:38:39 0° 1° (N) 2,626 7.2 -23.8°
